Volver al catálogo

CZ-4B DEB

ActivoSSO
NORAD 36290·DEBRIS·🇨🇳 China

Lanzado Oct 25, 2008 desde Taiyuan Satellite Launch Center

Loading…

Próximos Pases (próximas 24 horas)

TLE

ActualizadoSource: Space-Track

Época: Sep 14, 2026, 18:52 UTC

1 36290U 08053L   26257.78611179  .00001513  00000-0  95638-4 0  9993
2 36290  97.7780 280.4428 0007964 323.4316  36.6368 15.10596249742788

Sigue CZ-4B DEB en tiempo real con AllMySat

Download on the App Store